DW9888 Weather Reports


Display with metric or nautical units.
time (UTC)temp
F
wind
direction
speed
MPH
gust
MPH
rain 1hr
in
rain 24hr
in
rain mn
in
humidity
%
barometer
mb
20260507104512 51 91 0.0 0.0 0.00 0.00 0.00 91 1017.3
20260507103008 51 90 0.0 0.0 0.00 0.00 0.00 91 1017.5
20260507101507 51 91 0.0 0.0 0.00 0.00 0.00 91 1017.6
20260507100006 51 90 0.0 0.0 0.00 0.00 0.00 91 1017.6
20260507094504 51 90 0.0 0.0 0.00 0.00 0.00 91 1017.8
20260507093005 51 92 0.0 0.0 0.00 0.00 0.00 91 1017.9
20260507091501 52 92 0.0 0.0 0.00 0.00 0.00 91 1017.9
20260507090058 52 92 0.0 0.0 0.00 0.00 0.00 90 1018.0
20260507084558 53 91 0.0 0.0 0.00 0.00 0.00 90 1018.2
20260507083059 53 257 0.0 0.0 0.00 0.00 0.00 90 1018.3
20260507081553 53 257 0.0 0.0 0.00 0.00 0.00 90 1018.4
20260507080119 52 257 0.0 0.0 0.00 0.00 0.00 90 1018.5
20260507074558 53 257 0.0 0.0 0.00 0.00 0.00 90 1018.6
20260507073058 53 257 0.0 0.0 0.00 0.00 0.00 90 1018.6
20260507071559 54 257 0.0 0.0 0.00 0.00 0.00 90 1018.6
20260507070042 55 135 0.0 0.0 0.00 0.00 0.00 90 1018.7
20260507064546 55 135 0.0 0.0 0.00 0.00 0.00 89 1018.7
20260507063041 55 135 0.0 0.0 0.00 0.00 0.00 89 1018.9
20260507061541 55 135 0.0 0.0 0.00 0.00 0.00 89 1018.8
20260507060039 56 267 0.0 0.0 0.00 0.00 0.00 89 1018.8
20260507054546 56 267 0.0 0.0 0.00 0.00 0.00 88 1018.8
20260507053043 57 267 0.0 0.0 0.00 0.00 0.00 87 1018.8
20260507051538 57 267 0.0 0.0 0.00 0.00 0.00 86 1018.9
20260507050037 58 285 0.0 1.0 0.00 0.00 0.00 86 1018.7
20260507044536 58 274 0.0 0.0 0.00 0.00 0.00 84 1018.6
20260507043038 59 252 0.0 1.0 0.00 0.00 0.00 82 1018.6
20260507041536 59 283 0.0 3.0 0.00 0.00 0.00 80 1018.5
20260507040038 60 285 0.0 2.0 0.00 0.00 0.00 78 1018.5
20260507034535 60 291 0.0 3.0 0.00 0.00 0.00 77 1018.2
20260507033037 60 276 0.0 2.0 0.00 0.00 0.00 75 1018.1
20260507031533 61 290 0.0 4.0 0.00 0.00 0.00 72 1017.9
20260507030034 61 286 0.0 3.0 0.00 0.00 0.00 71 1018.0
20260507024535 62 273 2.0 5.0 0.00 0.00 0.00 70 1017.8
20260507023031 63 245 2.0 4.0 0.00 0.00 0.00 68 1017.7
20260507021530 64 281 3.0 5.0 0.00 0.00 0.00 67 1017.6
20260507020033 65 311 3.0 6.0 0.00 0.00 0.00 66 1017.4
20260507014528 65 289 3.0 7.0 0.00 0.00 0.00 67 1017.4
20260507013035 65 272 5.0 8.0 0.00 0.00 0.00 66 1017.5
20260507011536 66 282 4.0 9.0 0.00 0.00 0.00 66 1017.3
20260507010028 67 288 4.0 9.0 0.00 0.00 0.00 66 1017.3
20260507004525 67 273 4.0 9.0 0.00 0.00 0.00 63 1017.2
20260507003024 67 288 4.0 8.0 0.00 0.00 0.00 63 1017.2
20260507001523 67 255 3.0 11.0 0.00 0.00 0.00 63 1017.0
20260507000023 67 256 5.0 11.0 0.00 0.00 0.00 64 1016.9
20260506234530 68 310 4.0 11.0 0.00 0.00 0.00 63 1016.8
20260506233020 67 291 5.0 10.0 0.00 0.00 0.00 64 1016.8
20260506231519 68 267 6.0 11.0 0.00 0.00 0.00 63 1016.9
20260506230018 67 271 6.0 11.0 0.00 0.00 0.00 63 1017.0
20260506224524 68 279 6.0 13.0 0.00 0.00 0.00 62 1017.1
20260506223014 68 283 5.0 13.0 0.00 0.00 0.00 63 1017.2
20260506221513 69 295 5.0 12.0 0.00 0.00 0.00 61 1017.3
20260506220012 69 270 5.0 12.0 0.00 0.00 0.00 62 1017.4
20260506214509 69 319 6.0 13.0 0.00 0.00 0.00 62 1017.6
20260506213011 69 293 5.0 13.0 0.00 0.00 0.00 61 1017.7
20260506211506 68 299 5.0 15.0 0.00 0.00 0.00 62 1017.6
20260506210005 68 267 7.0 12.0 0.00 0.00 0.00 62 1017.8
20260506204506 68 287 6.0 16.0 0.00 0.00 0.00 62 1017.8
20260506203004 70 300 6.0 13.0 0.00 0.00 0.00 59 1017.8
20260506201503 70 305 6.0 13.0 0.00 0.00 0.00 57 1017.8
20260506200003 70 287 5.0 13.0 0.00 0.00 0.00 56 1018.0
20260506194600 70 288 5.0 10.0 0.00 0.00 0.00 55 1018.0
20260506193056 70 269 3.0 8.0 0.00 0.00 0.00 55 1018.3
20260506191559 68 284 5.0 9.0 0.00 0.00 0.00 57 1018.4
20260506190055 67 193 4.0 10.0 0.00 0.00 0.00 57 1018.6
20260506184557 67 287 4.0 9.0 0.00 0.00 0.00 59 1018.9
20260506183047 66 284 3.0 6.0 0.00 0.00 0.00 60 1019.1
20260506181545 65 253 3.0 7.0 0.00 0.00 0.00 61 1019.2
20260506180045 64 207 1.0 8.0 0.00 0.00 0.00 64 1019.4
20260506174540 63 257 5.0 8.0 0.00 0.00 0.00 64 1019.6
20260506173047 62 195 1.0 8.0 0.00 0.00 0.00 67 1019.6
20260506171538 62 197 1.0 6.0 0.00 0.00 0.00 67 1019.7
20260506170033 61 233 0.0 6.0 0.00 0.00 0.00 69 1019.8
20260506164531 60 316 1.0 5.0 0.00 0.00 0.00 71 1019.9
20260506163044 60 197 0.0 5.0 0.00 0.00 0.00 70 1019.8
20260506161527 58 197 0.0 4.0 0.00 0.00 0.00 72 1019.7
20260506160023 58 195 0.0 4.0 0.00 0.00 0.00 75 1019.8
20260506154530 58 191 0.0 1.0 0.00 0.00 0.00 77 1019.8
20260506153018 56 189 0.0 2.0 0.00 0.00 0.00 80 1019.8
20260506151515 56 184 0.0 0.0 0.00 0.00 0.00 83 1019.8
20260506150013 55 142 0.0 0.0 0.00 0.00 0.00 88 1019.8
20260506144511 50 142 0.0 0.0 0.00 0.01 0.00 91 1019.8
20260506143011 48 142 0.0 0.0 0.00 0.01 0.00 91 1019.7
20260506141508 47 143 0.0 0.0 0.00 0.01 0.00 91 1019.6
20260506140017 47 143 0.0 0.0 0.00 0.01 0.00 92 1019.6
20260506134506 47 142 0.0 0.0 0.00 0.05 0.00 91 1019.5
20260506133005 47 143 0.0 0.0 0.00 0.05 0.00 91 1019.5
20260506131503 47 142 0.0 0.0 0.00 0.05 0.00 91 1019.3
20260506130002 47 143 0.0 0.0 0.00 0.05 0.00 91 1019.0
20260506124501 47 143 0.0 0.0 0.00 0.18 0.00 91 1018.9
20260506123114 48 142 0.0 0.0 0.00 0.18 0.00 91 1018.9
20260506121613 48 143 0.0 0.0 0.00 0.18 0.00 91 1018.8
20260506120058 48 143 0.0 0.0 0.00 0.18 0.00 91 1019.0
20260506114557 48 143 0.0 0.0 0.00 0.18 0.00 91 1018.8
20260506113056 48 143 0.0 0.0 0.00 0.18 0.00 91 1018.8
20260506111554 48 142 0.0 0.0 0.00 0.18 0.00 90 1018.8